FW6687 Weather Reports


time (UTC)temp
F
wind
direction
speed
knots
gust
knots
rain 1hr
in
rain 24hr
in
rain mn
in
humidity
%
barometer
mb
20260507003027 62 0 0.0 0.9 0.00 0.00 0.00 81 1011.6
20260507001533 62 0 0.0 0.9 0.00 0.00 0.00 81 1011.7
20260507000030 62 0 0.0 0.0 0.00 0.00 0.00 81 1011.9
20260506234544 62 0 0.0 0.0 0.00 0.00 0.00 81 1012.0
20260506233030 62 0 0.0 0.9 0.00 0.00 0.00 81 1012.1
20260506231529 63 0 0.0 0.9 0.00 0.00 0.00 81 1012.1
20260506230029 63 0 0.0 0.0 0.00 0.00 0.00 81 1012.0
20260506224530 63 73 0.0 0.9 0.00 0.00 0.00 81 1012.1
20260506223032 62 0 0.0 0.9 0.00 0.00 0.00 82 1012.1
20260506221527 63 0 0.0 1.7 0.00 0.00 0.00 81 1012.1
20260506220036 63 86 0.0 0.9 0.00 0.00 0.00 81 1012.1
20260506214530 63 0 0.0 1.7 0.00 0.00 0.00 81 1012.4
20260506213028 63 93 0.0 1.7 0.00 0.00 0.00 81 1012.4
20260506211527 63 107 0.0 1.7 0.00 0.00 0.00 80 1012.5
20260506210030 63 0 0.0 0.9 0.00 0.00 0.00 81 1012.6
20260506204535 63 0 0.0 1.7 0.00 0.00 0.00 81 1012.3
20260506203028 64 101 0.0 2.6 0.00 0.00 0.00 81 1012.3
20260506201528 64 95 1.7 2.6 0.00 0.00 0.00 81 1012.0
20260506200030 64 82 0.9 4.3 0.00 0.00 0.00 81 1011.9
20260506194535 64 107 1.7 5.2 0.00 0.00 0.00 80 1011.6
20260506193030 64 94 2.6 5.2 0.00 0.00 0.00 80 1011.4
20260506191530 65 113 2.6 7.0 0.00 0.00 0.00 79 1011.2
20260506190027 65 104 4.3 8.7 0.00 0.00 0.00 78 1011.3
20260506184530 65 96 4.3 9.6 0.00 0.00 0.00 77 1011.1
20260506183030 66 130 5.2 10.4 0.00 0.00 0.00 76 1010.9
20260506181530 66 84 5.2 12.2 0.00 0.00 0.00 75 1011.1
20260506180030 67 75 4.3 9.6 0.00 0.00 0.00 73 1011.0
20260506174529 67 95 5.2 11.3 0.00 0.00 0.00 72 1010.8
20260506173030 68 86 5.2 11.3 0.00 0.00 0.00 71 1010.8
20260506171530 67 92 7.8 15.6 0.00 0.00 0.00 71 1010.8
20260506170029 68 117 7.0 13.0 0.00 0.00 0.00 71 1010.9
20260506164528 68 70 7.8 14.8 0.00 0.00 0.00 70 1010.7
20260506163030 69 70 7.8 14.8 0.00 0.00 0.00 67 1010.4
20260506161532 69 116 8.7 15.6 0.00 0.00 0.00 66 1010.5
20260506160038 69 115 7.8 13.0 0.00 0.00 0.00 66 1010.5
20260506154532 69 129 9.6 15.6 0.00 0.00 0.00 66 1010.3
20260506153029 69 113 7.8 14.8 0.00 0.00 0.00 66 1010.5
20260506151528 70 117 7.8 15.6 0.00 0.00 0.00 66 1010.5
20260506150029 70 134 8.7 15.6 0.00 0.00 0.00 65 1010.6
20260506144527 70 63 8.7 14.8 0.00 0.00 0.00 67 1010.7
20260506143033 70 153 10.4 15.6 0.00 0.00 0.00 67 1010.7
20260506141528 70 107 7.8 17.4 0.00 0.00 0.00 67 1010.8
20260506140030 70 99 9.6 17.4 0.00 0.00 0.00 68 1010.8
20260506134526 70 96 9.6 15.6 0.00 0.00 0.00 68 1011.0
20260506133030 71 102 8.7 13.9 0.00 0.00 0.00 65 1011.0
20260506131543 72 105 6.1 15.6 0.00 0.00 0.00 65 1010.9
20260506130037 71 64 8.7 16.5 0.00 0.00 0.00 65 1011.0
20260506124531 72 130 7.8 13.9 0.00 0.00 0.00 63 1011.1
20260506123028 73 92 7.0 13.9 0.00 0.00 0.00 62 1011.1
20260506121530 72 137 7.8 13.0 0.00 0.00 0.00 63 1011.2
20260506120028 71 98 8.7 15.6 0.00 0.00 0.00 63 1011.4
20260506114528 72 95 7.8 14.8 0.00 0.00 0.00 62 1011.4
20260506113030 71 133 7.8 14.8 0.00 0.00 0.00 63 1011.4
20260506111527 72 115 8.7 13.0 0.00 0.00 0.00 63 1011.5
20260506110028 73 63 6.1 12.2 0.00 0.00 0.00 61 1011.4
20260506104530 72 123 8.7 16.5 0.00 0.00 0.00 60 1011.6
20260506103037 73 115 7.0 13.9 0.00 0.00 0.00 58 1011.7
20260506101528 73 92 4.3 9.6 0.00 0.00 0.00 57 1011.7
20260506100035 71 112 5.2 12.2 0.00 0.00 0.00 60 1011.8
20260506094535 71 49 3.5 10.4 0.00 0.00 0.00 59 1011.8
20260506093035 70 82 4.3 8.7 0.00 0.00 0.00 64 1011.7
20260506091531 70 75 3.5 9.6 0.00 0.00 0.00 64 1011.6
20260506090028 70 134 0.0 3.5 0.00 0.00 0.00 67 1011.5
20260506084530 68 0 0.0 5.2 0.00 0.00 0.00 71 1011.4
20260506083030 68 58 0.0 2.6 0.00 0.00 0.00 71 1011.6
20260506081533 68 216 0.9 2.6 0.00 0.00 0.00 72 1011.5
20260506073028 68 0 0.0 0.9 0.00 0.00 0.00 72 1011.5
20260506071529 65 0 0.0 0.9 0.00 0.00 0.00 74 1011.4
20260506061528 0 0.0 0.0 0.00 0.00 0.00 1011.5
20260506044532 0 0.0 0.0 0.00 0.00 0.00 1010.6
20260506043029 0 0.0 0.0 0.00 0.00 0.00 1010.5
20260506041528 0 0.0 0.0 0.00 0.00 0.00 1010.5
20260506040028 0 0.0 0.0 0.00 0.00 0.00 1010.4
20260506034528 0 0.0 0.0 0.00 0.00 0.00 1010.4
20260506033029 0 0.0 0.0 0.00 0.00 0.00 1010.3
20260506031530 0 0.0 0.0 0.00 0.00 0.00 1010.3
20260506030035 0 0.0 0.0 0.00 0.00 0.00 1010.0
20260506024541 0 0.0 0.0 0.00 0.00 0.00 1010.1
20260506023030 0 0.0 0.0 0.00 0.00 0.00 1010.0
20260506021530 0 0.0 0.0 0.00 0.00 0.00 1010.2
20260506020030 0 0.0 0.0 0.00 0.00 0.00 1010.2
20260506014535 0 0.0 0.0 0.00 0.00 0.00 1010.4
20260506013028 0 0.0 0.0 0.00 0.00 0.00 1010.4
20260506011530 0 0.0 0.0 0.00 0.00 0.00 1010.4
20260506010033 0 0.0 0.0 0.00 0.00 0.00 1010.6
20260506004530 0 0.0 0.0 0.00 0.00 0.00 1010.5